Vertical_Velocity
1 0 0 -0 1 2 -2 1 1 -3 -2 2 0 -0 -1 -3 0 -1 -2 -0 2 1 3 0 -1 0 -0 -2 1 0 0 1 0 -1 0 -1 1 0 -0 0 -1 0 -0 -0 -0 -0 -0
-1 0 2 1 -0 -3 -1 3 -2 -2 1 -1 -1 -1 -0 -1 -1 -2 0 1 -0 2 1 -1 0 -1 0 0 -1 1 0 0 -1 -0 -0 -0 0 -0 0 -0 0 -1 0 0 0 -0 -0
1 -1 2 0 -1 1 1 -2 -0 0 -2 -1 -0 -1 -1 -2 -1 1 1 -0 -0 0 -1 -1 -1 -0 0 -1 -0 2 -0 0 2 0 0 -1 -1 -0 0 -1 -0 -1 -1 0 -0 -0 1
1 1 -0 1 -1 -0 -0 -0 1 -0 -1 -0 -1 -2 -1 -0 -0 -0 0 -2 -1 -1 -2 -1 0 -1 -2 -1 1 2 1 0 -0 1 -1 -0 0 0 -2 -1 -1 -1 -1 -2 -1 0 -1
-0 1 2 2 1 1 -0 1 -1 -3 -3 -0 -1 -1 -2 -1 -0 1 -1 -1 -1 -0 -1 0 -2 -1 -1 1 2 1 0 -1 1 1 0 -0 1 1 -1 -1 -1 -1 -2 -2 -2 -0 -1
-0 1 2 1 0 -0 0 -1 -2 -1 -1 -1 -1 -1 -2 -1 1 -0 -0 -0 -1 -0 -0 0 -2 -1 -0 1 2 0 1 -0 0 1 0 -0 1 -0 0 -1 -2 -2 -2 -2 -2 -3 2
0 0 1 1 0 0 -0 0 -1 -1 -1 -0 -0 -0 -0 -0 1 -0 -1 0 1 -1 -0 -0 -1 -2 0 1 2 -0 1 1 -0 1 1 1 -1 0 0 0 -1 -1 -2 -3 -0 -2 -5
-0 -1 1 0 -0 0 0 -0 -1 -0 1 -0 -1 -1 -0 1 -1 -0 1 1 -0 -1 -2 -0 -0 -1 -1 0 0 1 1 0 1 -1 -0 -1 -0 -0 -1 -1 -1 -0 -1 -1 -1 -1 -5
-1 0 2 1 2 1 0 1 1 -1 -1 -1 -2 -0 0 -0 1 0 -0 -1 -1 1 -1 -0 -0 0 0 1 1 -0 -1 1 -0 -0 1 0 -2 0 -1 -1 -0 -1 -1 -1 -3 -2 -2
0 0 1 0 1 -1 0 -1 -1 -1 -0 -0 -1 -1 -1 -0 -0 -1 -1 -2 -0 0 -0 1 -0 -1 -0 -0 -2 0 -0 0 -1 -1 -0 -1 -0 -2 -0 0 -1 0 -1 -1 -2 -2 -3
-1 -1 -0 -1 1 -1 -1 -1 -0 1 -0 -1 -1 -1 -1 0 -0 -1 -0 -0 -0 1 -5 -0 -0 0 1 0 1 1 1 0 -0 -0 2 -1 -1 -0 0 0 1 -1 0 -1 -1 -0 -1
1 -1 0 -1 0 -0 -0 -0 -1 -1 -0 -2 -0 -0 -1 -1 0 -1 -1 -0 0 -1 -8 -1 0 1 2 1 0 -1 -0 1 2 0 1 -0 1 0 -0 0 1 0 -0 -2 -1 -0 -1
0 0 0 -1 -0 0 -1 -1 0 -1 -1 -1 -1 -0 -0 0 0 -0 -0 -1 -0 -2 -1 -0 -0 0 -1 -0 -2 -1 -1 -0 1 -0 1 1 0 0 1 0 -0 1 0 -3 -6 -3 -6
-0 -0 -1 -1 0 0 -1 -1 0 1 -0 -1 -1 -0 -1 1 1 -0 0 -1 -0 -0 -0 1 0 -0 -0 1 -2 -1 -1 -1 0 1 -0 -0 -3 1 0 2 1 2 1 -2 -5 -2 -3
1 0 0 0 0 0 -0 -0 0 -1 -0 -1 -1 -1 -0 -0 1 2 -1 -0 -3 0 0 0 -0 -1 -1 -0 -1 -0 -2 -3 -1 1 -1 -0 -2 -0 -0 1 2 -0 -1 1 0 0 -2
1 1 1 -0 -1 1 -0 0 -0 -1 -3 -1 -0 -0 0 0 0 2 1 1 1 2 1 -1 -0 -0 -1 -1 -1 -0 -3 -0 0 2 2 -1 -2 -2 1 3 0 1 3 -1 -0 -4 -1
1 1 1 -0 -1 -1 0 -1 -1 -4 -1 0 -2 -3 1 1 0 1 -0 1 1 0 1 1 -0 -0 -0 0 -0 -1 -4 -0 1 1 3 4 3 -5 -1 -2 1 -0 -3 -1 -0 -1 -4
-1 2 -0 -0 -1 -1 -1 -1 -2 -0 0 -1 -1 -2 -1 -0 -1 2 1 0 -0 1 1 -1 -1 1 1 2 -1 2 -1 5 0 1 -1 -1 4 -2 1 -0 1 3 2 3 3 -2 1
3 1 0 -2 -2 -2 -2 -3 -2 -1 -1 -1 -1 0 -1 -1 -2 -2 1 2 -1 -1 1 -1 -0 0 0 -2 0 -0 1 -0 2 0 1 2 6 -1 0 -0 1 -2 -2 2 -0 5 -5
-0 1 0 -1 -1 -0 -1 -1 -2 -2 -2 -3 0 -1 -2 0 -1 1 -1 -2 -1 -3 -2 1 -0 3 2 -1 3 0 1 2 2 2 1 6 1 -5 -9 -1 5 -1 -1 1 9 5 -10
1 0 -2 -2 -0 -0 -3 -2 -3 -4 -0 -4 2 0 -1 -1 -0 -3 -1 -1 0 1 2 0 -2 1 1 -0 2 0 2 1 -1 0 2 3 -2 2 -2 0 -2 -2 4 7 -2 -6 5
-2 0 -2 -2 -3 -5 -2 -1 -2 -2 -4 -4 -4 -1 -0 -2 -0 3 2 -3 -0 2 4 -1 1 1 2 -0 2 -8 1 5 4 -4 -2 -2 -9 -4 -9 -2 1 -7 9 -2 -3 3 -5
1 -3 -3 -0 -3 -2 -2 -3 -4 -5 -2 -4 -2 -1 1 1 2 3 -0 0 -2 1 2 0 0 -2 -1 -2 0 1 3 0 1 2 1 7 3 4 -20 4 1 4 -12 -2 2 5 8
-1 -3 -3 0 -1 -3 -3 -6 -4 -3 -2 1 -3 -1 -2 -1 1 0 -1 -0 3 0 -3 4 2 3 -0 -2 -1 -0 -2 -0 2 4 13 5 6 11 -10 0 7 -9 -0 -0 -1 -3 3
1 -1 -1 -2 -2 -2 -2 -4 -1 -2 2 1 -2 -6 -1 -2 -1 -1 -4 -1 -0 -1 -0 -3 -4 -1 -1 -3 -5 -9 -6 -1 -0 2 1 4 9 2 1 -0 -13 9 -3 1 -2 -0 3
-2 0 -3 0 3 -4 -4 -3 -2 -1 -2 -6 -2 -2 -4 -4 -3 0 -0 2 -2 -0 1 0 -3 -4 -2 -2 -2 -0 -3 -4 -1 1 2 4 4 9 3 7 0 -2 2 -1 21 1 -7
-2 1 2 -2 -0 -2 -2 -2 0 -2 -4 -6 -10 -6 -5 -3 -2 -3 -4 -3 -1 -2 -4 -4 -2 -2 -2 -1 -2 0 -2 -3 -1 -2 -6 -8 -3 -0 -3 4 2 -3 5 5 -1 -7 -5
0 -3 -2 -0 3 2 1 1 -0 -1 -3 -3 -5 -4 -7 -3 -3 -3 -3 -4 -4 -3 -2 -2 -3 -5 -3 -2 -2 -4 -0 -1 -1 -1 -3 4 -2 -2 2 -0 -12 8 -5 -1 3 -3 -4
-1 -1 -0 1 -0 -2 -1 -2 1 -2 -3 -2 -3 -4 -2 -5 -4 -5 -4 -5 -4 -4 -3 -3 -1 -0 -2 -2 -3 -3 -3 2 -1 -6 -5 -3 -2 -0 4 -13 -4 6 2 -2 0 5 14
Height
3137 3138 3138 3139 3138 3138 3139 3139 3139 3139 3138 3138 3137 3136 3136 3135 3135 3134 3134 3133 3132 3131 3131 3131 3130 3130 3130 3129 3129 3127 3127 3126 3125 3124 3123 3121 3121 3120 3120 3119 3119 3119 3119 3118 3118 3117 3116
3137 3138 3139 3139 3139 3139 3140 3139 3139 3139 3138 3137 3136 3135 3135 3134 3133 3133 3132 3131 3130 3130 3129 3129 3129 3129 3128 3128 3127 3126 3126 3125 3124 3123 3123 3122 3121 3120 3119 3119 3119 3118 3118 3118 3116 3115 3114
3137 3138 3139 3139 3139 3139 3139 3139 3139 3138 3137 3137 3136 3135 3133 3133 3132 3131 3130 3129 3128 3128 3127 3127 3127 3127 3127 3127 3125 3125 3125 3124 3124 3123 3123 3122 3121 3121 3120 3119 3119 3118 3118 3116 3115 3113 3111
3137 3137 3138 3139 3139 3139 3139 3139 3138 3137 3137 3135 3134 3132 3132 3131 3129 3128 3127 3127 3126 3126 3126 3126 3126 3125 3125 3124 3123 3123 3123 3123 3123 3122 3122 3121 3121 3120 3120 3119 3118 3118 3117 3116 3114 3112 3109
3136 3136 3137 3138 3138 3138 3138 3137 3137 3136 3135 3134 3132 3131 3130 3128 3127 3126 3125 3125 3124 3124 3124 3124 3124 3123 3123 3122 3122 3122 3122 3122 3121 3121 3121 3120 3120 3119 3119 3118 3117 3116 3115 3114 3112 3109 3107
3135 3136 3137 3137 3137 3137 3136 3136 3135 3135 3134 3133 3131 3130 3128 3127 3126 3125 3123 3123 3122 3122 3122 3122 3122 3124 3122 3121 3120 3120 3121 3121 3120 3120 3120 3119 3118 3117 3116 3116 3116 3115 3113 3111 3110 3108 3105
3133 3134 3135 3135 3136 3136 3135 3135 3134 3134 3132 3131 3129 3128 3127 3126 3125 3123 3122 3122 3123 3122 3120 3120 3120 3119 3119 3119 3119 3119 3118 3119 3119 3118 3118 3117 3117 3115 3114 3114 3113 3112 3111 3109 3108 3105 3101
3132 3133 3133 3134 3134 3135 3134 3134 3133 3132 3131 3130 3128 3127 3125 3124 3123 3122 3121 3120 3119 3120 3118 3116 3116 3116 3117 3117 3117 3116 3117 3118 3117 3116 3116 3116 3114 3113 3112 3111 3111 3109 3108 3106 3105 3103 3099
3131 3131 3132 3132 3133 3133 3133 3132 3132 3131 3129 3128 3127 3125 3124 3123 3121 3121 3119 3119 3118 3116 3115 3113 3112 3113 3114 3115 3114 3114 3115 3114 3114 3113 3112 3112 3112 3110 3109 3108 3108 3106 3105 3103 3103 3100 3096
3130 3130 3131 3131 3131 3131 3131 3131 3130 3129 3128 3127 3125 3124 3123 3121 3122 3119 3118 3117 3116 3115 3113 3111 3109 3110 3111 3111 3112 3111 3111 3113 3111 3110 3109 3109 3107 3107 3106 3105 3105 3103 3102 3101 3099 3098 3096
3129 3130 3130 3130 3130 3130 3129 3129 3128 3127 3126 3125 3124 3123 3121 3120 3119 3118 3117 3116 3115 3114 3113 3110 3108 3108 3108 3110 3109 3109 3109 3108 3108 3107 3108 3106 3104 3103 3103 3102 3102 3101 3099 3098 3095 3093 3092
3128 3128 3129 3129 3129 3129 3128 3127 3126 3126 3124 3123 3122 3121 3119 3118 3117 3116 3114 3114 3114 3115 3108 3107 3106 3106 3106 3106 3107 3106 3107 3106 3105 3103 3102 3102 3101 3100 3099 3099 3098 3098 3097 3095 3090 3090 3090
3126 3127 3127 3127 3127 3127 3126 3125 3125 3123 3122 3121 3120 3118 3117 3116 3115 3113 3112 3113 3114 3109 3108 3107 3105 3105 3105 3104 3104 3104 3103 3102 3102 3101 3098 3098 3096 3096 3096 3096 3095 3095 3095 3092 3093 3091 3088
3125 3125 3125 3125 3125 3125 3125 3124 3123 3121 3120 3118 3117 3116 3114 3113 3112 3111 3111 3112 3111 3106 3105 3104 3103 3102 3102 3101 3101 3099 3098 3097 3097 3097 3096 3094 3093 3092 3092 3092 3092 3091 3092 3092 3098 3091 3084
3123 3123 3123 3123 3123 3123 3123 3122 3121 3119 3117 3116 3115 3113 3112 3110 3109 3108 3109 3108 3106 3105 3103 3102 3101 3099 3098 3098 3098 3097 3095 3094 3093 3093 3094 3091 3089 3088 3088 3088 3090 3087 3087 3088 3086 3084 3084
3122 3122 3122 3122 3122 3121 3121 3120 3119 3117 3115 3114 3112 3111 3109 3108 3106 3106 3106 3105 3103 3102 3101 3100 3099 3098 3096 3096 3096 3095 3093 3091 3090 3090 3089 3088 3086 3084 3084 3084 3083 3083 3084 3083 3084 3088 3085
3120 3120 3120 3120 3120 3120 3119 3118 3117 3115 3114 3112 3111 3108 3107 3105 3104 3103 3102 3100 3099 3098 3098 3098 3096 3095 3094 3093 3092 3091 3090 3089 3087 3087 3086 3085 3084 3081 3080 3078 3078 3078 3076 3078 3079 3076 3073
3118 3118 3118 3118 3118 3117 3117 3116 3115 3113 3111 3110 3108 3106 3104 3102 3102 3100 3098 3097 3096 3095 3095 3094 3092 3091 3090 3089 3087 3087 3086 3085 3084 3083 3082 3082 3078 3075 3074 3073 3072 3070 3070 3072 3072 3068 3065
3116 3117 3116 3116 3116 3115 3114 3113 3111 3110 3109 3107 3104 3102 3101 3099 3098 3097 3096 3094 3093 3092 3091 3090 3089 3087 3086 3086 3085 3081 3080 3080 3079 3079 3077 3076 3072 3071 3067 3068 3065 3064 3064 3064 3064 3062 3057
3115 3114 3114 3114 3113 3112 3110 3109 3108 3106 3105 3104 3101 3099 3097 3095 3094 3093 3092 3091 3089 3088 3087 3085 3084 3082 3080 3079 3079 3076 3076 3075 3074 3073 3073 3071 3067 3066 3062 3062 3062 3060 3059 3059 3057 3053 3049
3112 3113 3112 3111 3110 3109 3107 3106 3104 3102 3101 3100 3097 3095 3094 3092 3090 3089 3088 3086 3084 3083 3081 3080 3077 3076 3075 3074 3072 3070 3068 3067 3066 3066 3065 3064 3057 3058 3054 3055 3053 3050 3049 3049 3045 3044 3041
3110 3110 3110 3109 3108 3106 3104 3103 3101 3100 3097 3096 3095 3093 3090 3088 3085 3083 3082 3079 3078 3077 3076 3073 3072 3070 3070 3068 3067 3063 3063 3061 3059 3057 3058 3056 3048 3047 3039 3044 3043 3033 3035 3038 3034 3032 3027
3108 3108 3108 3107 3106 3103 3102 3100 3098 3096 3093 3090 3088 3086 3085 3082 3079 3078 3076 3073 3071 3071 3069 3068 3065 3063 3062 3061 3058 3057 3054 3052 3051 3049 3049 3048 3044 3041 3025 3035 3032 3019 3020 3021 3022 3020 3019
3108 3107 3106 3105 3103 3101 3098 3096 3093 3089 3086 3084 3082 3081 3079 3077 3075 3073 3072 3071 3068 3066 3065 3064 3060 3057 3055 3052 3048 3045 3044 3042 3040 3039 3038 3036 3037 3037 3028 3030 3020 3009 3012 3013 3013 3011 3009
3106 3105 3105 3103 3100 3097 3095 3093 3091 3088 3085 3082 3079 3078 3076 3074 3072 3070 3069 3067 3065 3062 3059 3056 3054 3051 3048 3045 3042 3036 3035 3033 3031 3030 3031 3030 3030 3029 3027 3022 3012 3009 3008 3008 3006 3004 3003
3105 3104 3103 3101 3099 3097 3095 3093 3090 3088 3085 3082 3079 3077 3075 3073 3071 3068 3066 3063 3061 3059 3056 3053 3049 3047 3044 3040 3038 3036 3034 3033 3031 3029 3028 3027 3027 3027 3023 3018 3012 3005 3005 3004 3002 2999 3001
3105 3105 3103 3101 3100 3098 3096 3093 3091 3088 3085 3083 3079 3077 3074 3071 3068 3066 3062 3060 3058 3056 3053 3050 3047 3043 3040 3037 3035 3034 3032 3032 3029 3027 3026 3025 3023 3020 3017 3013 3007 3005 3003 3002 3002 3003 2999
3108 3106 3104 3101 3099 3097 3095 3093 3090 3087 3084 3082 3079 3076 3073 3070 3066 3063 3061 3058 3055 3052 3049 3047 3044 3039 3036 3034 3033 3033 3029 3028 3026 3024 3023 3021 3020 3016 3013 3010 3005 3002 3002 3003 3000 2996 2995
3108 3106 3103 3101 3099 3097 3094 3092 3089 3086 3083 3081 3078 3074 3070 3068 3065 3060 3057 3055 3052 3049 3046 3043 3041 3037 3034 3033 3031 3029 3027 3024 3022 3018 3017 3014 3014 3012 3012 3004 2999 2995 2994 2993 2992 2991 2988